Location: Freiburg+im+Breisgau
(48.0359°N, 7.8195°E)
Time: 08:44:51
(UTC+01:00)

ISS - Visible Passes

Search period start: 20 November 2017 00:00
Search period end: 30 November 2017 00:00
Orbit: 402 x 407 km, 51.6° (Epoch: 21 November)

Date Brightness Start Highest point End Pass type
(mag) Time Alt. Az. Time Alt. Az. Time Alt. Az.
27 Nov -1.3 19:06:46 10° SSW 19:07:38 16° SSW 19:07:38 16° SSW visible
28 Nov -2.1 18:15:04 10° S 18:17:28 19° SE 18:17:35 19° SE visible
29 Nov -1.4 17:24:13 10° SSE 17:25:19 11° SE 17:26:25 10° ESE visible
29 Nov -2.5 18:57:59 10° SW 19:00:07 36° SW 19:00:07 36° SW visible
